User: anonymous
Location: Caltech
(34.1382°N, 118.1253°W)
Time: 21:33:31
(UTC-07:00)
Language:

Cosmos 1937 Rocket - Orbit

View from above orbital plane
View from above orbital plane
View from above satellite
View from above satellite

Ground track
Ground track

The orbit data is extracted from the following two-line orbital elements,

1 19039U 88029B   14110.84194462  .00000378  00000-0  13331-3 0    65
2 19039 074.0485 262.8219 0024128 359.7245 151.5458 14.37974859365048
Epoch (UTC): 20 April 2014 20:12:24
Eccentricity: 0.0024128
inclination: 74.0485°
perigee height: 748 km
apogee height: 782 km
right ascension of ascending node: 262.8219°
argument of perigee: 359.7245°
revolutions per day: 14.37974859
mean anomaly at epoch: 151.5458°
orbit number at epoch: 36504

The dashed part of the orbit path shows where the satellite is in the earth's shadow,  

DLR